Location: DARK SKY Beskydy - Park tmavé oblohy, www.darkskybeskydy.cz
(49.4926°N, 18.5016°E)
Time: 14:50:59
(UTC+02:00)

BlueWalker 3 - Visible Passes

Search period start: 18 June 2024 00:00
Search period end: 28 June 2024 00:00
Orbit: 480 x 494 km, 53.2° (Epoch: 17 June)

Date Brightness Start Highest point End Pass type
(mag) Time Alt. Az. Time Alt. Az. Time Alt. Az.
18 Jun 2.3 00:16:58 10° W 00:20:41 62° NNW 00:24:24 10° ENE visible
18 Jun 3.0 01:55:35 10° WNW 01:59:12 46° N 02:02:50 10° E visible
18 Jun 1.8 03:33:51 10° WNW 03:37:37 88° SSW 03:41:22 10° ESE visible
18 Jun 2.3 22:13:29 10° SSW 22:16:57 37° SE 22:20:25 10° ENE visible
18 Jun 2.3 23:51:16 10° W 23:55:00 64° NNW 23:58:44 10° ENE visible
19 Jun 3.0 01:29:54 10° WNW 01:33:31 46° N 01:37:08 10° ENE visible
19 Jun 1.8 03:08:11 10° WNW 03:11:56 89° NE 03:15:41 10° ESE visible
19 Jun 2.4 21:47:51 10° SSW 21:51:17 35° SE 21:54:43 10° ENE visible
19 Jun 2.2 23:25:35 10° WSW 23:29:18 66° NNW 23:33:02 10° ENE visible
20 Jun 3.0 01:04:12 10° WNW 01:07:49 46° N 01:11:27 10° ENE visible
20 Jun 1.8 02:42:30 10° WNW 02:46:15 85° NNE 02:49:59 10° ESE visible
20 Jun 2.2 22:59:52 10° WSW 23:03:37 68° NNW 23:07:20 10° ENE visible
21 Jun 3.0 00:38:29 10° WNW 00:42:07 45° N 00:45:44 10° ENE visible
21 Jun 1.9 02:16:48 10° WNW 02:20:33 82° NNE 02:24:18 10° ESE visible
21 Jun 2.9 03:55:19 10° W 03:58:25 25° SW 04:01:30 10° SSE visible
21 Jun 2.1 22:34:09 10° WSW 22:37:54 71° NNW 22:41:39 10° ENE visible
22 Jun 3.0 00:12:46 10° WNW 00:16:23 45° N 00:20:00 10° ENE visible
22 Jun 1.9 01:51:06 10° WNW 01:54:51 79° NNE 01:58:35 10° ESE visible
22 Jun 2.8 03:29:34 10° W 03:32:43 26° SW 03:35:53 10° SSE visible
22 Jun 2.1 22:08:26 10° WSW 22:12:11 73° NNW 22:15:56 10° ENE visible
22 Jun 3.0 23:47:02 10° WNW 23:50:39 45° N 23:54:17 10° ENE visible
23 Jun 2.0 01:25:23 10° WNW 01:29:07 76° NNE 01:32:52 10° ESE visible
23 Jun 2.7 03:03:49 10° W 03:07:02 28° SW 03:10:15 10° SSE visible
23 Jun 2.1 21:42:41 10° WSW 21:46:27 76° NNW 21:50:12 10° ENE visible
23 Jun 3.0 23:21:18 10° WNW 23:24:55 45° N 23:28:32 10° ENE visible
24 Jun 2.0 00:59:38 10° WNW 01:03:24 74° NNE 01:07:08 10° ESE visible
24 Jun 2.6 02:38:03 10° W 02:41:20 29° SW 02:44:30 11° SSE visible
24 Jun 3.0 22:55:32 10° WNW 22:59:09 45° N 23:02:47 10° ENE visible
25 Jun 2.1 00:33:54 10° WNW 00:37:39 71° NNE 00:41:23 10° ESE visible
25 Jun 2.6 02:12:17 10° WNW 02:15:37 31° SW 02:16:21 28° SSW visible
25 Jun 3.0 22:29:46 10° WNW 22:33:24 45° N 22:37:01 10° ENE visible
26 Jun 2.1 00:08:09 10° WNW 00:11:54 69° NNE 00:15:37 10° ESE visible
26 Jun 2.5 01:46:30 10° WNW 01:49:53 33° SW 01:49:55 33° SW visible
26 Jun 3.0 22:03:59 10° WNW 22:07:37 46° N 22:11:15 10° ENE visible
26 Jun 2.2 23:42:24 10° WNW 23:46:08 66° NNE 23:49:43 11° E visible
27 Jun 2.5 01:20:43 10° WNW 01:24:00 35° SW 01:24:00 35° SW visible
27 Jun 3.0 21:38:12 10° WNW 21:41:50 46° N 21:45:27 10° ENE visible
27 Jun 2.2 23:16:37 10° WNW 23:20:21 64° NNE 23:24:02 10° E visible
